Hourly Data Report for August 05, 2020

TORONTO CITY
ONTARIO
Current Station Operator: ECCC - MSC

43°40'00.000" N
79°24'00.000" W
112.50 m
6158355
71508
XTO

Download Data

Hourly Data (August 2020)
Hourly Data Report for August 5, 2020
TIME
LST
Temp Definition
°C
Dew Point Definition
°C
Rel Hum Definition
%
Precip. Amount Definition
mm

Wind Dir Definition
10's deg

Wind Spd Definition
km/h
Visibility Definition
km
Stn Press Definition
kPa
Hmdx Definition


Wind Chill Definition


Weather Definition


00:00 18.2 14.6 80 0.0       99.86     LegendNANA
01:00 17.8 14.0 78 0.0       99.86     LegendNANA
02:00 17.7 13.5 76 0.0       99.89     LegendNANA
03:00 17.0 13.5 80 0.0       99.94     LegendNANA
04:00 16.8 12.7 77 0.0       100.00     LegendNANA
05:00 16.2 11.9 75 0.0       100.10     LegendNANA
06:00 16.0 11.8 76 0.0       100.19     LegendNANA
07:00 17.0 11.5 70 0.0       100.24     LegendNANA
08:00 18.8 10.7 59 0.0       100.31     LegendNANA
09:00 20.0 10.1 53 0.0       100.30     LegendNANA
10:00 21.5 9.3 46 0.0       100.33     LegendNANA
11:00 22.1 7.4 39 0.0       100.33     LegendNANA
12:00 23.1 7.0 35 0.0       100.32     LegendNANA
13:00 22.8 6.1 34 0.0       100.34     LegendNANA
14:00 24.0 6.5 32 0.0       100.35     LegendNANA
15:00 23.9 5.8 31 0.0       100.38     LegendNANA
16:00 23.9 5.6 31 0.2       100.37     LegendNANA
17:00 23.1 6.0 33 0.0       100.39     LegendNANA
18:00 22.4 5.8 34 0.0       100.41     LegendNANA
19:00 21.2 4.6 34 0.0       100.44     LegendNANA
20:00 20.1 5.6 39 0.2       100.46     LegendNANA
21:00 19.3 6.9 45 0.0       100.53     LegendNANA
22:00 17.5 7.5 52 0.0       100.53     LegendNANA
23:00 16.9 8.7 59 0.0       100.58     LegendNANA

Notes on Data Quality.

Legend

  • E = Estimated
  • M = Missing
  • NA = Not Available*
  • [empty] = Indicates an unobserved value
Date modified: